Home > Weather > Salinas > Past weeks

Flag for USA Past Weather in Salinas, California, USA — Yesterday and Last 2 Weeks

Now
60 °F

Clear.


Feels Like: 60 °F
Forecast: 56 / 69 °F
Wind: 7 mph from West

Location: Salinas Municipal Airport

Current Time: Aug 28, 2016 at 10:43:58 PM

Latest Report: Aug 28, 2016 at 9:53 PM


Visibility: 10 mi

Pressure: 30.09 "Hg

Humidity: 80%

Dew Point: 54 °F

Location of SalinasLocation

Past Weather in Salinas — Graph

°F

Salinas Temperature Yesterday

Maximum temperature yesterday: 70 °F (at 2:53 PM)
Minimum temperature yesterday: 60 °F (at 11:53 PM)
Average temperature yesterday: 64 °F

High & Low Weather Summary for the Past Weeks

 TemperatureHumidityPressure
High71 °F (Aug 14, 1:53 PM)96% (Aug 16, 3:53 AM)30.14 "Hg (Aug 16, 3:53 AM)
Low54 °F (Aug 15, 4:53 AM)53% (Aug 17, 11:53 AM)29.86 "Hg (Aug 17, 6:53 PM)
Average61 °F78%29.98 "Hg
* Reported Aug 13 8:53 PM — Aug 28 8:53 PM, Salinas, Weather by CustomWeather, © 2016

Note: Actual official high and low records may vary slightly from our data, if they occured in-between our weather recording intervals... More about our weather records

Advertising

Salinas Weather History for the Previous 24 Hours

Scroll right to see more
 ConditionsComfort  
Time TempWeatherWind HumidityBarometerVisibility
8:53 PM
Sun, Aug 28
61 °FClear.5 mph78%30.09 "Hg10 mi
7:53 PM62 °FSunny.9 mph73%30.08 "Hg10 mi
6:53 PM64 °FSunny.10 mph68%30.08 "Hg10 mi
5:53 PM66 °FSunny.15 mph65%30.08 "Hg10 mi
4:53 PM68 °FSunny.14 mph59%30.08 "Hg10 mi
3:53 PM69 °FSunny.13 mph57%30.08 "Hg10 mi
2:53 PM71 °FSunny.14 mph55%30.10 "Hg10 mi
1:53 PM70 °FSunny.14 mph57%30.11 "Hg10 mi
12:53 PM69 °FSunny.10 mph59%30.11 "Hg10 mi
11:53 AM67 °FSunny.6 mph63%30.11 "Hg10 mi
10:53 AM66 °FPartly sunny.No wind68%30.12 "Hg10 mi
9:53 AM62 °FOvercast.No wind73%30.12 "Hg10 mi
8:53 AM61 °FOvercast.3 mph75%30.11 "Hg10 mi
7:53 AM61 °FOvercast.3 mph75%30.10 "Hg10 mi
6:53 AM61 °FOvercast.5 mph75%30.09 "Hg10 mi
5:53 AM61 °FOvercast.3 mph75%30.09 "Hg10 mi
4:53 AM61 °FOvercast.3 mph75%30.08 "Hg10 mi
3:53 AM61 °FOvercast.3 mph75%30.08 "Hg10 mi
2:53 AM60 °FOvercast.No wind78%30.08 "Hg10 mi
1:53 AM59 °FOvercast.No wind78%30.08 "Hg10 mi
12:53 AM59 °FClear.No wind78%30.08 "Hg10 mi
11:53 PM
Sat, Aug 27
60 °FClear.3 mph78%30.07 "Hg10 mi
10:53 PM61 °FClear.3 mph78%30.07 "Hg10 mi
Weather by CustomWeather, © 2016

See weather overviewHow to use our weather pages